{"data":{"norad_id":57875,"epoch":"2026-09-20T11:15:43.720128Z","epoch_age_seconds":137041,"freshness":"FRESH","line1":"1 57875U 23144M   26263.46925602 -.00000138  00000+0  45010-5 0  9996","line2":"2 57875  43.0033 265.4338 0001210 288.3869  71.6851 15.27571337167436","mean_motion":15.27571337,"eccentricity":0.000121,"inclination_deg":43.0033,"raan_deg":265.4338,"arg_perigee_deg":288.3869,"mean_anomaly_deg":71.6851,"bstar":4.501e-6,"rev_number":16743,"period_min":94.267283309205,"perigee_km":482.24482964435,"apogee_km":483.90524295713,"semimajor_km":6861.2120363007,"source":"CELESTRAK","updated_at":"2026-09-21T09:00:33.718148Z"}}